Hourly Data Report for July 26, 2021

NORTH CAPE
PRINCE EDWARD ISLAND
Current Station Operator: ECCC - MSC

47°03'29.000" N
63°59'55.000" W
7.60 m
8300516
71987
WNE

Download Data

Hourly Data (July 2021)
Hourly Data Report for July 26, 2021
TIME
LST
Temp Definition
°C
Dew Point Definition
°C
Rel Hum Definition
%
Precip. Amount Definition
mm

Wind Dir Definition
10's deg

Wind Spd Definition
km/h
Visibility Definition
km
Stn Press Definition
kPa
Hmdx Definition


Wind Chill Definition


Weather Definition


00:00 18.5 13.9 75 0.0 18 14   101.05     LegendNANA
01:00 17.4 14.2 81 0.0 21 18   101.04     LegendNANA
02:00 16.0 15.3 95 2.6 18 17   101.00     LegendNANA
03:00 16.4 15.8 96 1.1 18 17   100.94     LegendNANA
04:00 16.6 15.9 96 0.0 18 13   100.91     LegendNANA
05:00 16.7 16.1 96 0.0 18 13   100.90     LegendNANA
06:00 17.0 16.2 95 0.0 20 15   100.89     LegendNANA
07:00 17.2 16.3 94 0.0 21 15   100.92     LegendNANA
08:00 17.8 16.7 94 0.0 21 14   100.92     LegendNANA
09:00 19.0 17.4 91 0.0 20 13   100.85     LegendNANA
10:00 19.2 17.1 88 0.0 22 15   100.85     LegendNANA
11:00 18.6 17.3 92 0.0 24 15   100.85     LegendNANA
12:00 18.6 17.2 92 0.0 24 17   100.83     LegendNANA
13:00 19.1 17.0 87 0.0 23 14   100.79     LegendNANA
14:00 19.9 17.6 86 0.0 25 11   100.81     LegendNANA
15:00 20.0 17.7 87 0.0 23 7   100.79 26   LegendNANA
16:00 20.2 18.0 87 0.0 22 3   100.75 26   LegendNANA
17:00 20.4 17.8 85 0.0 21 4   100.73 26   LegendNANA
18:00 20.3 18.1 87 0.0 0 1   100.72 26   LegendNANA
19:00 19.7 17.7 88 0.0 16 8   100.73     LegendNANA
20:00 18.9 17.6 92 0.0 17 9   100.74     LegendNANA
21:00 19.2 17.6 90 0.0 18 13   100.76     LegendNANA
22:00 19.3 17.7 90 0.0 18 13   100.74     LegendNANA
23:00 18.9 17.7 93 0.0 18 12   100.70     LegendNANA

Notes on Data Quality.

Legend

  • E = Estimated
  • M = Missing
  • NA = Not Available*
  • [empty] = Indicates an unobserved value
Date modified: